Leadville, CO

9:43 AM MDT on April 30, 2017 (GMT -0600)
Lake County

Weather History for KLXV - December, 2012

Change the Weather History Date:

Tuesday, December 4, 2012

  Actual Average Record
Temperature  
Mean Temperature 24 °F -  
Max Temperature 40 °F 30 °F 53 °F (1987)
Min Temperature 8 °F 6 °F -9 °F (2013)
Degree Days  
Heating Degree Days 41 47  
Month to date heating degree days 144 187  
Since 1 July heating degree days 3164 3592  
Cooling Degree Days 0 0  
Month to date cooling degree days 0 0  
Year to date cooling degree days 0 0  
Moisture  
Dew Point 4 °F    
Average Humidity 42    
Maximum Humidity 63    
Minimum Humidity 20    
Precipitation  
Precipitation 0.00 in 0.02 in 0.80 in (1977)
Month to date precipitation 0.02 0.10  
Year to date precipitation 10.32 11.80  
Sea Level Pressure  
Sea Level Pressure 30.31 in    
Wind  
Wind Speed 9 mph (North)    
Max Wind Speed 20 mph    
Max Gust Speed 25 mph    
Visibility 10 miles    
Events      
T = Trace of Precipitation, MM = Missing Value Source: NWS Daily Summary

Daily Weather History Graph

Daily Weather History Graph

Search for Another Location

Airport or City:

Trip Planner

Search our weather history database for the weather conditions in past years. The results will help you decide how hot, cold, wet, or windy it might be!

Date:

Astronomy

Dec. 04, 2012 Rise Set
Actual Time 7:09 AM MST 4:42 PM MST
Civil Twilight 6:39 AM MST 5:12 PM MST
Nautical Twilight 6:06 AM MST 5:45 PM MST
Astronomical Twilight 5:33 AM MST 6:17 PM MST
Moon 10:30 PM MST (12/4) 11:06 AM MST (12/4)
Length of Visible Light 10h 32m
Length of Day
9h 33m
Waning Gibbous, 69% of the Moon is Illuminated
Dec 4
Waning Gibbous
Dec 6
Last Quarter
Dec 13
New
Dec 19
First Quarter
Dec 28
Full

Hourly Weather History & Observations

Time (MST) Temp. Windchill Dew Point Humidity Pressure Visibility Wind Dir Wind Speed Gust Speed Precip Events Conditions
12:53 AM 18.0 °F 4.8 °F 6.1 °F 60% 30.21 in 10.0 mi NNE 12.7 mph - N/A   Clear
1:53 AM 16.0 °F 3.6 °F 3.0 °F 57% 30.23 in 10.0 mi NNE 10.4 mph - N/A   Clear
2:53 AM 14.0 °F 2.0 °F 1.9 °F 59% 30.23 in 10.0 mi NNE 9.2 mph - N/A   Clear
3:53 AM 14.0 °F 2.0 °F 1.0 °F 56% 30.28 in 10.0 mi North 9.2 mph - N/A   Clear
4:53 AM 12.9 °F 5.2 °F -2.0 °F 51% 30.33 in 10.0 mi WNW 4.6 mph - N/A   Clear
5:53 AM 10.0 °F - -2.9 °F 56% 30.35 in 10.0 mi Calm Calm - N/A   Clear
6:53 AM 12.0 °F - -5.1 °F 46% 30.38 in 10.0 mi Calm Calm - N/A   Clear
7:53 AM 10.9 °F 2.9 °F -5.1 °F 49% 30.43 in 10.0 mi ENE 4.6 mph - N/A   Clear
8:53 AM 21.9 °F - -5.1 °F 30% 30.39 in 10.0 mi Calm Calm - N/A   Clear
9:53 AM 30.9 °F 26.2 °F -2.0 °F 24% 30.30 in 10.0 mi Variable 4.6 mph - N/A   Clear
10:53 AM 35.1 °F 26.9 °F -2.0 °F 21% 30.29 in 10.0 mi NNW 11.5 mph 20.7 mph N/A   Clear
11:53 AM 37.9 °F 28.2 °F -0.0 °F 20% 30.25 in 10.0 mi North 18.4 mph 23.0 mph N/A   Clear
12:53 PM 37.9 °F 28.9 °F -0.0 °F 20% 30.27 in 10.0 mi NW 16.1 mph 24.2 mph N/A   Clear
1:53 PM 37.9 °F 30.5 °F 1.9 °F 22% 30.27 in 10.0 mi NW 11.5 mph - N/A   Clear
2:53 PM 36.0 °F 26.3 °F 6.1 °F 29% 30.30 in 10.0 mi WNW 16.1 mph 23.0 mph N/A   Partly Cloudy
3:53 PM 36.0 °F 28.0 °F 7.0 °F 30% 30.31 in 10.0 mi NW 11.5 mph 21.9 mph N/A   Overcast
4:53 PM 33.1 °F 23.9 °F 6.1 °F 32% 30.33 in 10.0 mi NW 12.7 mph - N/A   Scattered Clouds
5:53 PM 33.1 °F 24.9 °F 9.0 °F 37% 30.37 in 10.0 mi NNW 10.4 mph 17.3 mph N/A   Partly Cloudy
6:53 PM 28.9 °F 22.8 °F 10.9 °F 47% 30.36 in 10.0 mi NNW 5.8 mph - N/A   Clear
7:53 PM 27.0 °F 17.3 °F 10.9 °F 51% 30.40 in 10.0 mi North 10.4 mph - N/A   Clear
8:53 PM 26.1 °F 15.6 °F 12.0 °F 55% 30.35 in 10.0 mi NNE 11.5 mph - N/A   Clear
9:53 PM 26.1 °F 16.2 °F 15.1 °F 63% 30.27 in 10.0 mi North 10.4 mph 17.3 mph N/A   Clear
10:53 PM 28.0 °F 17.5 °F 16.0 °F 61% 30.23 in 10.0 mi North 12.7 mph - N/A   Clear
11:53 PM 27.0 °F 21.6 °F 16.0 °F 63% 30.20 in 10.0 mi NNE 4.6 mph - N/A   Clear